Tracking 28790 objects as of 18-Apr-2024
HD Live streaming from Space Station
objects crossing your sky now

FENGYUN 1C DEB

Track FENGYUN 1C DEB now!
10-day predictions


NORAD ID: 30454
Int'l Code: 1999-025AFR
Perigee: 740.8 km
Apogee: 1,036.9 km
Inclination: 98.1 °
Period: 102.6 minutes
Semi major axis: 7259 km
RCS: 0.027 m2 (small)
Launch date: May 10, 1999
Source: People's Republic of China (PRC)
Launch site: Taiyaun Space Center, China (TSC)

Note: This is SATELLITE DEBRIS
Your satellite tracking list
Your tracking list is empty




NASA's NSSDC Master Catalog

Two Line Element Set (TLE):
1 30454U 99025AFR 24109.03115563  .00010576  00000-0  56257-2 0  9997
2 30454  98.1190 131.4308 0203924 134.0995 256.3544 14.03507212874538
Source of the keplerian elements: AFSPC